Location: Nakusp
(50.2330°N, 117.8000°W)
Time: 23:11:21
(UTC-07:00)

Daily predictions for brighter satellites

Satellite Brightness Start Highest point End
(mag) Time Altitude Azimuth Time Altitude Azimuth Time Altitude Azimuth
Meteor 1-11 4.4 21:37:22 10° S 21:43:02 63° E 21:48:40 10° NNE
Cosmos 2333 Rocket 2.4 21:37:22 10° NNW 21:43:08 70° ENE 21:48:53 10° SE
Cosmos 1726 2.2 21:44:38 10° N 21:48:27 85° W 21:52:15 10° S
deb Chang Zheng 4 4.2 21:45:05 10° N 21:49:22 61° WNW 21:53:39 10° SSW
ARGOS 3.3 21:46:09 10° SSE 21:51:32 73° ENE 21:56:55 10° NNW
Cosmos 1937 Rocket 3.9 21:47:43 10° S 21:52:37 42° ESE 21:57:30 10° NE
PSLV R/B 4.3 21:51:29 10° S 21:54:24 41° W 21:57:19 10° NNW
Cosmos 2219 Rocket 2.3 21:48:49 10° NNW 21:54:27 82° WSW 22:00:03 10° SSE
COSMOS 2455 3.4 21:48:39 10° NNW 21:54:34 52° NE 22:00:26 10° ESE
COSMOS 2428 3.6 21:49:29 10° NW 21:54:52 45° WSW 22:00:15 10° S
NOSS 3-1 (C) 3.5 21:49:22 10° SSW 21:55:17 67° SE 22:01:57 10° NE
Cosmos 2297 Rocket 3.4 21:51:04 10° SSE 21:55:18 22° ESE 21:59:35 10° NE
Cosmos 1862 Rocket 4.1 21:56:16 10° N 22:00:27 44° ENE 22:04:36 10° SSE
Sich 1 3.1 21:56:50 10° S 22:01:14 74° E 22:05:37 10° NNE
Meteor 1-4 Rocket 2.7 21:57:29 10° NNW 22:01:16 80° W 22:04:57 10° S
BREEZE-M DEB (TANK) 4.5 21:38:14 10° W 22:02:12 86° S 22:07:15 10° E
Cosmos 2242 Rocket 3.7 21:59:36 10° NNW 22:04:07 84° W 22:08:38 10° S
Cosmos 2298 Rocket 4.0 21:59:17 10° SSW 22:04:35 81° ESE 22:09:56 10° NNE
CARTOSAT-1 4.2 22:02:24 10° SE 22:06:29 44° ENE 22:10:36 10° N
CZ-4B R/B 3.6 22:01:58 10° NNE 22:07:16 71° ESE 22:12:27 10° S
Meteor 2-10 4.3 22:02:01 10° NNW 22:07:46 85° ENE 22:13:31 10° SSE
Cosmos 1633 Rocket 3.0 22:03:26 10° S 22:07:50 81° E 22:12:12 10° NNE
SPOT 5 4.3 22:12:22 10° SSW 22:16:39 35° W 22:21:11 10° NNW
Cosmos 1869 3.7 22:12:54 10° N 22:16:53 52° ENE 22:20:30 12° SSE
USA 245 3.3 22:14:53 10° S 22:17:04 34° W 22:19:09 10° NNW
Cosmos 1980 3.8 22:11:35 10° NNW 22:17:15 76° WSW 22:22:45 11° SSE
Cosmos 1269 Rocket 4.4 22:16:52 10° NNW 22:22:08 58° ENE 22:26:55 12° SE
Cosmos 1271 Rocket 3.5 22:19:23 10° NNW 22:23:07 49° W 22:26:52 10° S
CZ-4C R/B 3.9 22:17:25 10° NW 22:23:34 39° NNE 22:30:26 10° E
IGS 5A 3.8 22:20:09 12° SSE 22:23:53 55° ENE 22:28:00 10° N
SeaSat 1 4.0 22:24:26 10° E 22:28:35 28° NE 22:32:45 10° NNW
Cosmos 2237 Rocket 2.4 22:23:32 10° NNW 22:29:13 68° WSW 22:34:29 12° SSE
Cosmos 2219 4.1 22:24:05 10° SW 22:29:42 53° NW 22:35:21 10° NNE
Cosmos 1346 3.2 22:27:13 11° S 22:30:01 57° E 22:33:00 10° NNE
USA 234 4.2 22:24:09 10° ENE 22:30:28 53° N 22:36:46 10° W
H-2A R/B 2.2 22:27:08 11° SSE 22:32:17 84° ENE 22:37:47 10° NNW
CZ-4C R/B 3.2 22:30:31 12° S 22:33:42 68° WSW 22:37:13 10° NNW
Iridium 2 3.8 22:30:06 10° S 22:33:56 83° W 22:37:50 10° N
DELTA 2 DEB (DPAF) 4.3 22:29:50 10° S 22:34:13 72° WSW 22:38:44 10° NNW
Cosmos 220 Rocket 4.1 22:30:12 10° SSW 22:34:37 89° W 22:39:07 10° NNE
Cosmos 1626 2.3 22:31:10 11° S 22:34:40 59° E 22:38:23 10° NNE
Landsat 7 4.0 22:32:29 11° S 22:37:05 74° WSW 22:41:52 10° NNW
Cosmos 389 Rocket 4.0 22:35:26 10° N 22:38:27 25° ENE 22:40:50 13° ESE
Cosmos 1898 Rocket 4.0 22:33:52 10° SW 22:39:01 65° WNW 22:44:15 10° NNE
Cosmos 1703 3.6 22:35:41 10° SSW 22:39:34 65° WNW 22:43:29 10° N
Cosmos 2082 3.8 22:33:58 10° SSW 22:39:36 61° ESE 22:45:15 10° NE
Cosmos 1048 Rocket 4.2 22:35:13 10° NNW 22:40:35 66° ENE 22:45:02 15° SE
Cosmos 1125 Rocket 4.1 22:40:43 13° SSE 22:45:05 39° ESE 22:50:00 10° NE
Okean 1-7 4.0 22:42:14 10° N 22:46:11 34° ENE 22:49:08 16° SE
Terra 2.0 22:48:51 14° S 22:52:57 73° WSW 22:57:44 10° NNW
Tiangong 1 2.4 22:53:59 10° SW 22:56:22 20° S 22:56:26 20° S
ERBS 2.3 22:54:20 10° SW 22:57:48 60° SE 23:01:14 10° ENE
NOSS 3-1 (A) 3.9 22:54:30 10° SW 23:00:34 71° NW 23:07:27 10° NE
SAR-Lupe-2 3.8 22:58:17 17° S 23:00:53 63° WSW 23:04:28 10° NNW
Cosmos 1470 Rocket 4.1 22:57:22 10° SSW 23:01:38 57° WNW 23:05:55 10° N
Cosmos 1703 Rocket 3.6 22:57:32 10° N 23:01:56 76° E 23:05:01 19° SSE
Cosmos 1933 Rocket 4.1 22:58:14 10° SSW 23:02:38 59° WNW 23:07:05 10° N
Cosmos 1241 Rocket 4.4 22:58:11 10° SSW 23:04:23 84° SE 23:10:44 10° NE
Spot 4 4.0 23:00:39 16° S 23:04:31 73° WSW 23:09:25 10° NNW
Cosmos 2227 Rocket 2.3 23:06:29 10° SSW 23:12:10 80° WNW 23:17:53 10° NNE
Lacrosse 4 Rocket 1.9 23:09:15 10° NW 23:13:34 53° WSW 23:16:24 21° S
BREEZE-M DEB (TANK) 4.3 23:12:41 20° S 23:14:35 28° SE 23:22:04 10° ENE
Aureole 2 Rocket 2.7 23:13:06 10° NNW 23:16:12 52° ENE 23:17:59 24° SE
Cosmos 1455 3.9 23:13:40 10° NNW 23:16:56 28° W 23:20:13 10° SSW
COS B Rocket 3.4 23:15:31 10° N 23:19:21 67° E 23:21:51 23° SSE
Cosmos 2221 Rocket 3.7 23:16:38 10° NNW 23:21:13 76° W 23:24:18 20° S
ATLAS 2AS CENTAUR R/B 3.0 23:15:15 10° SW 23:22:55 80° SE 23:31:05 10° NE
DMSP B5D2-2 4.2 23:18:12 10° NNE 23:23:27 74° WNW 23:28:35 10° SSW
SL-16 R/B 2.6 23:18:41 10° NW 23:24:15 56° WSW 23:28:09 19° S
Cosmos 1933 3.8 23:20:31 10° NNW 23:24:31 57° W 23:27:12 20° S
Cosmos 1607 4.1 23:18:25 10° NW 23:24:35 68° NE 23:29:47 15° SE
CZ-4C R/B 4.3 23:23:57 19° ESE 23:25:53 33° ENE 23:29:12 10° N
Cosmos 2333 Rocket 3.9 23:22:27 10° NW 23:26:54 24° WSW 23:31:20 10° SSW
Cosmos 1689 Rocket 4.3 23:25:13 14° ESE 23:26:59 20° ENE 23:29:30 10° NNE
ATLAS 3B R/B 3.2 23:22:34 10° NW 23:29:18 48° WSW 23:33:49 19° S
Cosmos 1782 4.3 23:29:11 10° NNE 23:32:34 26° ENE 23:34:47 16° ESE
Cosmos 2074 Rocket 4.3 23:29:40 20° SSE 23:33:56 54° E 23:40:04 10° NNE
Cosmos 2219 Rocket 4.4 23:34:34 10° WNW 23:37:30 15° W 23:40:27 10° SW
Cosmos 1709 Rocket 4.1 23:32:07 13° SSW 23:37:41 72° W 23:43:48 10° N
Cosmos 2297 Rocket 2.4 23:33:09 10° SW 23:38:48 71° WNW 23:44:30 10° NNE
COSMOS 2455 3.7 23:34:52 10° NW 23:40:22 38° WSW 23:44:11 18° S
Cosmos 1340 Rocket 3.9 23:40:41 23° SE 23:42:08 30° E 23:45:36 10° NNE
USA 238 DEB 3.8 23:37:33 10° NW 23:44:34 72° SW 23:49:31 21° SSE
USA 238 3.8 23:37:39 10° NW 23:44:41 72° SW 23:49:38 21° SSE
Cosmos 1943 3.9 23:39:46 10° NNW 23:45:18 48° NE 23:49:55 14° SE
Landsat 5 4.4 23:47:30 20° SE 23:50:15 44° ENE 23:54:35 10° N
H-2A R/B 3.4 23:49:46 10° NNE 23:53:42 35° E 23:55:27 25° SE
Cosmos 1238 Rocket 4.3 23:51:03 10° NNE 23:54:21 24° ENE 23:56:09 17° ESE
Cosmos 1606 4.3 23:51:23 10° NNE 23:54:41 26° ENE 23:56:42 17° ESE
